Location: *
(51.8167°N, 12.5000°E)
Time: 04:18:02
(UTC+00:00)

Cosmos 1943 - Pass Details

Date: 16 September 2019
Orbit: 833 x 850 km, 71.0° (Epoch: 23 October)

Event Time Altitude Azimuth Distance (km) Brightness Sun altitude
Rises 21:44:09 0° 328° (NNW) 3,428 7.4 -33.1°
Reaches altitude 10° 21:46:38 10° 325° (NW) 2,487 6.4 -33.2°
Enters shadow 21:50:37 44° 306° (NW) 1,158 4.1 -33.5°
